Airfield :
LOGIN :

Register | Disclaimer

   EN    FR    IT 

 










Legend :    VFR   Marginal VFR   IFR   Intensive IFR   Very Intensive IFR
Visi :
Ceiling :
>= 8 km
>= 3000ft
5 to 8 km
1000 to 3000 ft
1500m to 5 km
500 to 1000 ft
800 to 1500m
200 to 500 ft
< 800m
< 200 ft
Symbols :   Thunderstorms  Fog  Heavy snow  Heavy precipitations  Wind > 20 kt
SIGMETs :     Misc.  Thunderstorms  Icing  Turbulence  Mountain Waves  Volcanic Ashes






- Airport Elevation : 1947 ft
- IATA code : OBF


EDMO - Oberpfaffenhofen

CURRENT METAR :
  • 261220Z 32006KT 270V360 9999 FEW039 23/14 Q1019

EXPIRED METARs :
  • 261150Z AUTO 29006KT 230V340 9999 // NCD 23/15 Q1019
  • 261120Z AUTO 34005KT 300V030 9999 // NCD 23/15 Q1019
  • 261050Z AUTO VRB02KT 9999 // SCT130/// 23/15 Q1019
  • 261020Z AUTO 10004KT 040V160 9999 // BKN130/// 22/14 Q1019
  • 260950Z AUTO VRB02KT 9999 // SCT130/// 23/15 Q1019

Expired Forecast.



MET'MAP, your aeronautical weather chart ! - Copyright ORBIFLY December 2007 - Disclaimer

ORBIFLY MET'MAP TEAM :

Programming & Development : Alexandra Zaïnal
Concept & original design : Baudouin d'Aumeries
Assistance for programming : Marc-Olivier Méhu
Technical & hardware support : Manuel Goepfert

Contact : metmap@orbifly.com




SOURCES & CREDITS :

   NOAA